Location: Martinez Town
(35.0892°N, 106.6420°W)
Time: 06:08:02
(UTC+00:00)

Daily predictions for brighter satellites

Satellite Brightness Start Highest point End
(mag) Time Altitude Azimuth Time Altitude Azimuth Time Altitude Azimuth
BREEZE-M DEB (TANK) 1.4 12:05:26 43° NW 12:06:07 71° NNE 12:08:15 10° ESE
ADEOS 3.6 12:01:07 10° N 12:06:12 54° WNW 12:11:16 10° SSW
Cosmos 1484 Rocket 2.9 12:03:02 10° N 12:06:43 45° WNW 12:10:18 10° SSW
Intercosmos 24 3.7 12:11:10 10° NNW 12:14:42 53° W 12:18:16 10° S
Cosmos 2278 4.1 12:11:14 10° NNW 12:16:52 67° ENE 12:22:27 10° SSE
Cosmos 2026 Rocket 4.0 12:12:18 10° S 12:18:40 80° W 12:25:04 10° N
Cosmos 1833 Rocket 3.8 12:17:49 20° W 12:19:36 23° WNW 12:24:03 10° N
Cosmos 1689 Rocket 2.7 12:17:25 10° SSE 12:20:18 56° ENE 12:23:11 10° N
Gblst 52 Del rocket 4.4 12:15:48 10° SW 12:21:20 78° SE 12:27:28 10° NE
Meteor PRIRODA 3.6 12:19:19 10° NNE 12:22:59 85° ESE 12:26:39 10° S
Cosmos 2195 Rocket 4.5 12:17:24 10° SSW 12:23:33 61° W 12:29:39 10° N
Cosmos 44 Rocket 4.3 12:25:05 15° WNW 12:28:33 30° WSW 12:33:01 10° S
CZ-4B R/B 2.9 12:24:39 10° N 12:28:44 70° WNW 12:33:00 10° SSW
Meteor 1-31 Rocket 3.5 12:27:39 10° N 12:31:10 32° WNW 12:34:40 10° SW
Cosmos 1726 Rocket 3.7 12:27:45 10° NNW 12:32:05 53° W 12:36:25 10° S
ATLAS 3B R/B 3.3 12:26:50 12° WSW 12:32:09 32° NW 12:38:01 10° NNE
Meteor 1-24 Rocket 4.1 12:28:26 10° SW 12:33:36 40° WNW 12:39:00 10° N
Cosmos 1455 4.4 12:33:22 10° NNE 12:36:47 29° ENE 12:40:11 10° SE
ARGOS Delta rocket 4.4 12:31:58 10° N 12:37:10 48° WNW 12:42:24 10° SSW
USA 290 3.9 12:38:00 15° WNW 12:38:29 15° WNW 12:40:27 10° NNW
Cosmos 2228 3.8 12:35:57 10° NNW 12:39:47 30° W 12:43:36 10° SSW
Cosmos 2369 4.0 12:35:00 10° NW 12:40:22 46° WSW 12:45:44 10° S
Cosmos 2082 Rocket 3.1 12:36:16 10° WSW 12:41:00 27° WNW 12:45:45 10° N
ATLAS CENTAUR R/B 2.0 12:37:27 10° SSW 12:41:24 57° ESE 12:45:11 10° NE
ADEOS Rocket 4.2 12:38:31 10° SW 12:41:40 15° W 12:44:51 10° WNW
Cosmos 1992 Rocket 4.2 12:37:13 10° NNW 12:42:14 49° WSW 12:47:14 10° S
PSLV R/B 4.1 12:42:16 10° NNE 12:46:23 78° E 12:50:28 10° S
YAOGAN 6 4.2 12:43:46 10° NNE 12:47:14 40° E 12:50:40 10° S
ERS-2 3.9 12:48:24 10° SW 12:50:11 13° W 12:51:59 10° WNW
ALOS 3.6 12:47:02 10° NNW 12:50:14 19° WNW 12:53:26 10° WSW
COSMO-SKYMED 1 2.8 12:46:03 10° S 12:50:15 51° W 12:54:29 10° NNW
SL-16 R/B 3.8 12:49:43 10° N 12:54:55 36° ENE 13:00:06 10° SE
Meteor 2-1 Rocket 4.5 12:55:49 10° N 13:01:33 81° E 13:07:21 10° S
